Regional Weather Roundup
Issued by NWS Sterling, VA

Home | Current Version | Previous Version | Text Only | Print | Product List | Glossary Off
Versions: 1 2 3 4 5 6 7 8 9 10 11 12 13 14 15 16 17 18 19 20 21 22 23 24 25 26 27 28 29 30 31 32 33 34 35 36 37 38 39 40 41 42 43 44 45 46 47 48 49 50

000
ASUS41 KLWX 030910
RWRLWX

REGIONAL WEATHER ROUNDUP
NATIONAL WEATHER SERVICE BALTIMORE MD/WASHINGTON DC
500 AM EDT SUN MAY 03 2015

Note: "FAIR" indicates few or no clouds below 12,000 feet
with no significant weather and/or obstructions to visibility.
 TC=TEMPERATURE CELSIUS

 * =Non NWS site. Station does not report precipitation (e.g. rain,
    snow, etc.), thunder, or fog.

DCZ001-MDZ009-015-VAZ040>042-051-053>054-031000-
WASHINGTON METRO

CITY           SKY/WX    TMP DP  RH WIND       PRES   REMARKS
WASHINGTON NAT MOCLDY    57  49  74 SW5       30.05R
DULLES         PTCLDY    46  42  86 CALM      30.06R
ANDREWS AFB    MOCLDY    53  44  72 W5        30.04R
FT BELVOIR     MOCLDY    47  46  95 CALM      30.05R
QUANTICO       MOCLDY    56  45  66 W3        30.07R
COLLEGE PARK*  PTCLDY    50  48  93 CALM      30.04R
LEESBURG*      CLEAR     52  45  76 CALM      30.07R
MANASSAS*      CLOUDY    45  45 100 CALM      30.07R
GAITHERSBURG*  CLEAR     46  41  81 CALM      30.09R

$$

MDZ006>007-011-014-031000-
BALTIMORE METRO

CITY           SKY/WX    TMP DP  RH WIND       PRES   REMARKS
BWI AIRPORT    CLEAR     51  44  77 SW5       30.03R
MD SCIENCE CTR   N/A     59  41  51 MISG      30.03R
MARTIN STATE   PTCLDY    52  50  93 CALM      30.04R
ANNAPOLIS      MOCLDY    57  45  64 W5        30.03R
FORT MEADE*    CLEAR     45  43  93 CALM      30.06R

$$

MDZ012-015-019>023-031000-
MARYLAND EASTERN SHORE

CITY           SKY/WX    TMP DP  RH WIND       PRES   REMARKS
OCEAN CITY     CLEAR     51  48  89 SW5       30.06R
SALISBURY      CLEAR     44  42  93 CALM      30.04S
BAY BRIDGE AP*   N/A    N/A N/A N/A CALM      30.03R
CAMBRIDGE*     CLEAR     54  52  94 CALM      30.03S
EASTON*        PTCLDY    55  55 100 SW3       30.07R

$$

MDZ017>025-031000-
SOUTHERN MARYLAND

CITY           SKY/WX    TMP DP  RH WIND       PRES   REMARKS
PATUXENT RIVER PTCLDY    54  46  74 W8        30.04R
ST INIGOES     CLEAR     54  47  77 W5        30.05R
LEONARDTOWN*   PTCLDY    54  45  71 SW6       30.06S

$$

MDZ003>005-031000-
NORTH CENTRAL MARYLAND

CITY           SKY/WX    TMP DP  RH WIND       PRES   REMARKS
FREDERICK*     CLEAR     46  41  81 CALM      30.08R
HAGERSTOWN APT PTCLDY    52  41  66 SE3       30.07R
WESTMINSTER*   CLEAR     57  34  41 NW3       30.05R

$$

MDZ501>502-031000-
WESTERN MARYLAND

CITY           SKY/WX    TMP DP  RH WIND       PRES   REMARKS
OAKLAND*       PTCLDY    50  36  57 SW6       30.12S
CUMBERLAND*    CLEAR     46  41  81 CALM      30.13S

$$

VAZ025>031-031000-
SHENANDOAH VALLEY

CITY           SKY/WX    TMP DP  RH WIND       PRES   REMARKS
WINCHESTER*    CLEAR     46  39  76 CALM      30.08R
FRONT ROYAL*   FAIR      50  43  76 S6        30.08R
LURAY*         FAIR      48  45  87 S3        30.10R
NEW MARKET*    FAIR      44  42  93 CALM      30.10S
STAUNTON*      MOCLDY    47  43  85 CALM      30.13S
WAYNESBORO*    CLOUDY    45  42  91 SW3       30.12S

$$

WVZ021-048>050-054>055-031000-
EASTERN WEST VIRGINIA PANHANDLE

CITY           SKY/WX    TMP DP  RH WIND       PRES   REMARKS
MARTINSBURG    CLEAR     45  40  82 CALM      30.07R
PETERSBURG*    PTCLDY    43  39  86 CALM      30.12S

$$

VAZ036>039-050-031000-
CENTRAL FOOTHILLS

CITY           SKY/WX    TMP DP  RH WIND       PRES   REMARKS
CHARLOTTESVILL MOCLDY    48  44  86 CALM      30.09R
CULPEPER*      NOT AVBL
ORANGE*        CLEAR     55  41  58 CALM      30.09R
GORDONSVILLE*  PTSUNNY   46  44  93 SW5       30.07S
WARRENTON*     CLOUDY    45  45 100 CALM      30.07R

$$

VAZ055>057-031000-
NORTH AND CENTRAL PIEDMONT

CITY           SKY/WX    TMP DP  RH WIND       PRES   REMARKS
FREDERICKSBRG* PTCLDY    49  49 100 CALM      30.07R
STAFFORD*      CLOUDY    44  32  61 CALM      30.11R

$$

NCZ024-NYZ072-PAZ021-071-VAZ022-071-031000-
OTHER REGIONAL OBSERVATIONS

CITY           SKY/WX    TMP DP  RH WIND       PRES   REMARKS
NEW YORK CITY  CLEAR     51  34  52 CALM      30.07S
PHILADELPHIA   MOCLDY    51  43  74 E7        30.05S
PITTSBURGH     PTCLDY    51  41  68 CALM      30.07R
ROANOKE        CLEAR     47  41  80 CALM      30.15R
RICHMOND       CLEAR     57  45  64 CALM      30.08R
RALEIGH        PTCLDY    47  45  93 NW5       30.13R

$$

ANZ530>537-031000-
MARINE OBSERVATIONS

STATION/POSITION TIME  TEMP    WIND        PRES
                       AIR SEA DIR/SP/G
                 (UTC) (F)     (DEG/KT/KT) (MB)
THOMAS PT LIGHT  0900   60 57  280/  8/  9 1017.6R
BALT KEY BRIDGE  0800   58     220/  5/  5 1016.2R
COVE POINT       0800   59     280/ 11/ 15 1017.4R
LEWISETTA        0800   58 61              1017.1R
SOLOMONS ISLAND  0800      59                N/A
PINEY POINT      0800          320/  8/  9   N/A

$$




USA.gov is the U.S. government's official web portal to all federal, state and local government web resources and services.